Location: Byszew
(52.1813°N, 19.2693°E)
Time: 07:14:03
(UTC+00:00)

AO-73 - Visible Passes

Search period start: 25 June 2022 00:00
Search period end: 05 July 2022 00:00
Orbit: 578 x 658 km, 97.6° (Epoch: 24 June)

Date Brightness Start Highest point End Pass type
(mag) Time Alt. Az. Time Alt. Az. Time Alt. Az.
28 Jun ? 01:31:57 10° NE 01:34:19 14° E 01:36:41 10° ESE visible
03 Jul ? 01:20:29 10° ENE 01:21:49 11° E 01:23:09 10° ESE visible
04 Jul ? 01:36:02 10° NE 01:38:48 16° E 01:41:34 10° SE visible
